Wind_Speed
4 4 5 5 5 6 7 7 7 7 8 7 7 7 7 8 8 7 7 6 7 7 5 5 5 4 4 4 3 4 5 5 5 5 5 5 5 5 5 5 5 5 5
4 4 4 4 4 5 7 8 7 7 8 7 7 7 7 7 7 7 7 6 6 6 5 5 5 4 4 3 3 3 4 5 5 5 5 5 5 5 4 5 6 6 5
5 4 4 4 4 5 6 7 7 7 7 7 7 7 8 8 7 7 6 7 6 6 5 5 5 4 4 4 4 3 4 5 5 5 5 5 5 4 4 5 5 5 5
5 4 4 3 4 4 6 6 6 7 7 8 8 7 7 7 6 6 5 6 5 5 5 5 5 4 4 4 4 3 3 4 4 4 4 4 4 3 4 4 4 4 4
5 5 4 4 4 5 6 7 7 7 7 8 8 7 7 6 6 6 6 5 4 4 4 4 4 4 4 4 4 3 3 3 3 3 2 3 3 2 3 4 4 4 3
5 5 4 4 4 5 7 7 7 7 7 7 7 7 6 6 5 6 4 3 4 4 4 3 4 4 3 3 3 3 2 2 2 2 1 1 1 1 2 2 2 2 2
5 5 4 5 5 6 6 7 7 7 7 7 6 6 6 6 5 4 3 2 2 3 3 3 4 4 3 2 2 3 2 2 1 0 0 0 0 0 0 1 1 1 0
6 5 5 6 6 6 6 6 7 7 7 6 6 5 6 5 5 5 3 2 2 1 1 3 3 3 2 2 2 2 3 2 1 1 1 1 1 1 1 1 1 0 0
6 6 6 6 6 6 5 5 6 6 6 6 5 5 5 4 5 4 3 3 2 1 0 1 2 2 2 1 1 2 2 3 2 1 1 1 1 1 2 2 1 1 1
6 5 6 6 6 6 5 5 5 5 5 5 5 5 4 3 3 4 3 2 1 1 1 0 1 0 0 1 2 2 3 3 2 2 2 1 1 2 2 2 2 1 1
7 6 6 6 6 6 5 5 5 5 4 4 4 3 3 3 3 3 3 2 1 2 2 2 1 1 1 2 2 3 3 2 2 2 2 2 2 2 3 3 3 3 3
9 7 7 7 6 6 6 6 5 4 4 3 3 3 2 3 3 2 2 2 2 2 3 2 2 2 2 3 2 2 3 3 2 3 3 3 3 3 3 4 4 5 4
10 8 8 7 6 6 6 7 6 5 4 3 3 3 2 2 1 1 1 1 2 3 3 3 3 3 3 3 2 2 3 3 3 3 3 3 4 4 4 5 5 5 5
10 9 9 9 8 7 7 7 6 5 5 4 4 3 2 1 1 1 1 1 2 3 4 4 5 5 3 4 3 3 3 3 3 4 4 4 4 4 4 5 6 6 6
9 9 9 9 8 7 6 6 6 5 4 4 3 2 2 1 1 2 2 3 3 4 4 5 5 5 4 4 3 3 4 4 4 4 4 5 5 5 6 6 7 7 7
9 9 9 8 8 7 6 6 5 5 4 3 3 3 2 1 1 2 3 3 4 4 4 5 5 4 4 4 4 4 4 5 5 5 4 5 6 6 6 7 8 8 8
9 9 8 8 8 7 7 6 5 5 4 3 3 3 3 3 3 4 4 4 4 4 5 5 4 4 5 5 4 4 5 6 6 5 6 6 7 8 8 8 9 9 9
8 8 7 7 7 7 7 6 5 4 4 4 3 3 3 4 4 5 4 4 5 5 6 6 6 5 5 5 5 5 5 5 6 6 6 6 8 9 9 9 9 9 9
8 7 7 7 7 7 6 5 5 4 4 3 3 3 4 4 5 5 4 5 5 6 6 7 6 5 5 5 5 5 5 5 6 7 7 8 9 9 8 9 9 8 9
8 7 7 7 7 6 6 6 5 4 4 3 3 4 4 5 5 5 6 6 6 6 6 6 6 5 5 5 5 6 6 6 7 7 8 8 8 9 9 9 9 9 9
8 7 7 7 7 7 7 6 6 5 5 5 5 5 5 5 6 6 6 7 7 7 6 6 6 6 6 6 6 6 7 7 7 7 8 8 9 9 9 9 9 9 10
9 7 6 6 6 6 6 6 5 5 5 6 6 6 6 5 6 7 7 8 8 7 7 6 7 7 8 8 8 8 8 8 8 8 8 9 10 10 9 9 9 9 10
8 8 7 6 6 6 5 5 5 5 6 6 6 6 6 6 6 7 8 8 8 7 7 7 8 8 9 9 9 9 8 8 9 9 9 9 10 10 11 10 10 11 10
8 8 8 7 6 6 5 6 6 5 5 6 7 6 6 7 7 7 8 9 9 9 8 8 9 9 9 10 10 10 10 10 10 10 10 10 10 10 10 10 11 11 10
7 7 8 8 7 7 6 6 6 6 6 7 7 7 7 7 7 8 9 9 9 9 9 9 10 10 10 11 11 11 11 11 11 11 10 10 11 11 11 11 11 11 12
7 7 8 8 9 8 8 8 8 8 7 8 8 8 8 8 8 9 9 9 9 9 9 10 11 11 11 12 12 12 12 12 12 12 12 11 11 11 11 12 12 12 13
Wind_Direction
115 135 141 153 161 166 162 160 160 156 157 154 150 147 146 148 150 155 161 160 151 149 157 152 150 154 146 141 138 130 139 124 115 106 102 95 86 84 86 84 81 79 74
114 125 135 134 148 160 163 162 159 158 158 155 152 148 141 144 148 149 152 154 149 148 151 148 145 150 147 140 143 139 138 134 122 114 111 98 87 79 80 80 74 73 71
101 107 133 134 135 146 154 157 160 160 156 154 157 152 146 142 141 148 148 151 148 148 145 146 139 136 138 131 135 141 133 128 115 110 101 94 89 80 78 79 72 67 67
85 97 116 130 131 141 148 146 150 158 156 157 159 154 149 143 140 147 146 151 155 155 157 157 148 134 138 141 133 131 135 135 112 109 97 87 86 82 79 75 74 69 69
76 84 105 114 136 141 143 143 141 146 155 161 160 157 150 147 146 148 143 156 162 153 156 155 161 153 143 141 141 147 155 148 125 123 104 85 83 90 89 83 78 73 69
75 86 99 105 134 142 143 141 143 142 143 152 158 156 150 152 150 144 140 164 163 154 153 149 151 151 162 162 165 163 167 174 162 149 137 77 77 112 88 84 83 77 64
80 88 93 99 120 131 135 141 141 141 143 140 142 146 141 142 143 136 129 142 149 151 160 153 149 151 159 189 193 186 191 193 194 174 137 170 316 260 241 61 27 23 34
74 86 93 94 106 121 134 140 140 142 146 144 143 140 134 127 124 128 123 125 124 114 152 171 165 161 162 194 209 215 225 222 236 230 216 238 275 311 316 313 313 297 308
74 78 89 92 99 111 121 138 143 138 141 143 143 136 128 126 130 125 123 111 118 117 146 186 169 188 197 245 267 253 241 241 241 223 231 264 295 321 336 344 340 301 273
72 76 85 97 100 103 117 125 132 136 140 136 129 128 120 115 110 110 110 85 59 15 339 296 144 115 24 296 277 253 240 245 252 227 236 264 301 322 324 335 341 324 290
74 77 83 87 97 101 112 119 127 134 138 146 144 131 119 112 106 103 97 81 44 7 355 336 336 349 332 292 284 253 249 280 251 263 267 272 302 312 307 305 314 310 292
73 78 85 90 93 97 106 114 124 129 128 138 135 120 118 114 107 100 81 65 34 2 349 349 342 337 329 306 295 254 266 275 271 267 267 277 288 295 295 296 299 295 281
76 77 81 87 96 101 103 107 121 125 122 120 111 105 112 113 95 97 64 33 21 8 345 335 329 348 342 327 311 297 289 283 283 276 275 289 279 278 282 287 290 296 283
74 78 79 82 86 95 99 98 102 103 102 103 109 114 119 100 80 67 15 360 6 8 9 353 348 347 331 311 306 307 291 293 292 301 295 296 287 286 284 287 289 292 292
71 75 79 82 82 84 90 90 91 98 101 97 99 106 96 84 73 34 10 3 12 16 12 1 349 330 326 321 313 294 285 288 293 303 303 295 289 287 283 289 289 290 291
68 76 81 79 79 79 83 86 90 88 87 87 81 70 57 60 35 17 14 11 4 2 356 349 344 342 331 319 319 298 285 288 288 294 295 294 293 292 286 285 286 286 286
67 69 73 72 71 72 74 75 79 76 74 68 61 57 48 34 19 8 1 353 346 341 343 344 348 335 327 329 324 302 294 302 291 295 303 295 290 289 289 288 285 283 285
60 63 64 67 66 63 63 62 63 62 61 56 44 29 22 14 10 5 0 344 334 331 337 337 333 326 320 325 322 317 311 310 303 297 299 295 292 294 291 291 290 288 283
53 55 55 58 56 56 54 50 49 50 44 37 31 23 17 15 8 357 350 338 332 330 336 327 323 324 324 320 320 322 315 303 301 296 296 303 303 299 294 294 294 293 292
47 48 50 49 50 50 48 43 41 39 33 18 10 5 0 356 348 342 338 338 337 333 328 318 317 325 331 329 330 327 315 305 304 305 307 306 308 308 302 295 294 293 298
41 44 46 42 41 39 40 37 35 31 23 14 4 353 350 353 353 345 340 336 332 331 329 322 325 331 333 333 328 322 313 305 303 304 303 302 307 309 305 303 295 293 295
31 33 38 37 33 31 31 27 24 19 15 11 6 358 352 346 341 335 332 332 331 328 326 328 332 329 329 325 324 322 316 310 305 301 301 301 303 305 305 303 301 298 298
26 27 27 24 22 19 18 15 19 18 10 4 358 352 344 337 335 333 333 333 334 331 333 335 334 330 326 324 322 322 319 319 316 312 310 309 307 305 304 299 297 297 296
21 21 20 16 8 5 1 357 1 3 360 354 349 345 338 333 331 334 334 329 331 332 332 329 329 327 325 323 321 317 313 314 314 314 313 311 308 305 305 303 303 303 303
13 15 12 10 5 356 348 345 345 344 340 340 339 337 336 336 333 329 329 329 326 328 330 328 325 323 322 322 319 314 311 311 311 312 311 307 304 303 300 300 298 298 298
3 4 2 360 358 356 349 346 338 335 332 330 333 332 331 332 330 329 327 325 324 325 327 326 322 320 320 318 316 313 309 308 308 307 305 304 301 302 302 302 301 297 296
Height
5867 5867 5868 5869 5870 5871 5872 5873 5874 5875 5876 5876 5877 5878 5879 5880 5881 5882 5883 5884 5885 5885 5886 5887 5888 5889 5890 5890 5891 5892 5892 5893 5894 5894 5895 5895 5895 5895 5895 5895 5895 5895 5895
5868 5868 5869 5870 5871 5871 5872 5874 5875 5876 5877 5877 5879 5879 5880 5881 5882 5883 5883 5884 5885 5886 5887 5888 5889 5890 5891 5891 5892 5892 5893 5894 5894 5895 5895 5896 5896 5896 5896 5896 5896 5896 5897
5870 5870 5871 5871 5872 5872 5873 5874 5876 5877 5878 5879 5880 5881 5882 5882 5883 5884 5884 5885 5886 5887 5888 5889 5889 5890 5891 5892 5893 5893 5894 5894 5895 5895 5896 5896 5896 5897 5897 5897 5897 5897 5897
5871 5872 5872 5872 5873 5873 5874 5876 5877 5877 5879 5880 5881 5882 5883 5883 5884 5885 5885 5886 5887 5888 5889 5889 5890 5891 5892 5893 5893 5894 5895 5895 5895 5896 5896 5897 5897 5897 5897 5897 5898 5898 5898
5873 5873 5873 5873 5874 5875 5876 5877 5878 5878 5879 5880 5882 5883 5884 5884 5885 5886 5886 5887 5888 5889 5889 5890 5891 5892 5893 5893 5894 5895 5895 5896 5896 5896 5897 5897 5898 5898 5898 5898 5898 5898 5899
5874 5874 5874 5874 5875 5876 5877 5878 5879 5880 5880 5881 5882 5884 5885 5885 5886 5887 5888 5888 5889 5890 5890 5891 5892 5892 5893 5894 5895 5895 5896 5896 5897 5897 5897 5898 5898 5898 5898 5898 5898 5899 5899
5876 5876 5876 5876 5876 5877 5878 5879 5880 5881 5881 5883 5884 5885 5885 5886 5887 5888 5889 5890 5890 5890 5891 5892 5893 5893 5894 5895 5895 5896 5896 5896 5897 5897 5898 5898 5898 5898 5898 5898 5899 5899 5899
5877 5877 5877 5877 5878 5878 5879 5880 5881 5882 5883 5884 5885 5886 5886 5887 5888 5889 5890 5891 5891 5891 5892 5892 5893 5894 5895 5895 5895 5896 5896 5896 5897 5897 5898 5898 5898 5898 5898 5898 5898 5899 5899
5878 5878 5878 5879 5879 5880 5880 5881 5882 5883 5884 5885 5885 5887 5888 5889 5889 5890 5891 5892 5892 5893 5893 5894 5894 5894 5895 5895 5895 5895 5896 5896 5897 5898 5898 5898 5898 5898 5898 5898 5898 5899 5899
5880 5880 5880 5880 5881 5881 5882 5883 5883 5884 5885 5886 5887 5888 5889 5890 5890 5891 5892 5893 5893 5894 5894 5894 5894 5895 5895 5895 5895 5895 5896 5896 5897 5897 5897 5898 5898 5898 5898 5898 5898 5898 5899
5882 5882 5882 5882 5882 5882 5883 5884 5885 5886 5887 5888 5889 5889 5891 5891 5892 5892 5893 5894 5894 5894 5894 5894 5894 5895 5895 5895 5895 5895 5896 5897 5897 5897 5897 5897 5898 5898 5898 5898 5898 5898 5898
5884 5884 5883 5884 5884 5884 5885 5885 5886 5887 5888 5889 5890 5891 5891 5892 5893 5893 5894 5894 5894 5894 5894 5894 5895 5895 5895 5895 5894 5894 5895 5896 5897 5897 5897 5897 5897 5897 5897 5898 5898 5897 5897
5886 5886 5886 5886 5886 5886 5886 5887 5888 5889 5889 5890 5890 5892 5892 5893 5894 5894 5895 5895 5895 5895 5895 5895 5896 5895 5895 5895 5895 5895 5895 5896 5896 5896 5896 5896 5896 5897 5897 5897 5897 5897 5897
5889 5888 5888 5888 5888 5888 5888 5889 5890 5891 5891 5892 5892 5893 5893 5894 5895 5895 5895 5896 5896 5896 5896 5896 5896 5896 5895 5895 5895 5895 5895 5895 5896 5896 5896 5896 5896 5896 5896 5896 5896 5895 5895
5892 5891 5891 5890 5891 5891 5891 5892 5892 5892 5893 5893 5894 5894 5895 5895 5895 5896 5896 5896 5896 5896 5896 5896 5896 5895 5895 5895 5895 5895 5895 5895 5895 5895 5895 5895 5894 5894 5894 5894 5894 5894 5894
5894 5894 5893 5893 5893 5893 5894 5894 5894 5894 5894 5895 5895 5895 5896 5896 5896 5897 5897 5897 5897 5897 5897 5896 5896 5895 5895 5895 5895 5894 5894 5893 5893 5893 5893 5893 5893 5893 5893 5893 5893 5892 5892
5896 5896 5896 5896 5896 5896 5895 5895 5896 5896 5896 5896 5896 5897 5897 5897 5897 5897 5898 5898 5897 5897 5897 5896 5896 5895 5895 5895 5894 5894 5893 5893 5893 5892 5892 5892 5892 5892 5891 5891 5891 5891 5890
5899 5898 5898 5898 5898 5897 5897 5897 5897 5897 5897 5898 5898 5898 5898 5898 5898 5898 5898 5898 5897 5897 5896 5896 5895 5895 5895 5894 5894 5893 5893 5892 5891 5891 5891 5890 5890 5890 5889 5889 5889 5889 5888
5901 5901 5900 5900 5900 5899 5899 5899 5899 5899 5899 5899 5899 5899 5899 5899 5898 5898 5898 5897 5897 5896 5896 5895 5895 5894 5894 5893 5893 5892 5892 5891 5890 5889 5889 5889 5889 5888 5887 5887 5887 5886 5886
5903 5903 5902 5902 5902 5901 5901 5901 5900 5900 5900 5900 5899 5900 5899 5899 5899 5898 5897 5897 5896 5896 5895 5895 5894 5893 5893 5892 5892 5891 5891 5890 5889 5888 5888 5888 5887 5886 5885 5885 5884 5884 5884
5905 5904 5904 5904 5903 5903 5903 5902 5901 5901 5901 5900 5900 5900 5899 5899 5898 5898 5897 5896 5896 5895 5894 5893 5893 5892 5891 5891 5891 5890 5889 5889 5888 5887 5886 5885 5885 5884 5883 5883 5882 5882 5881
5907 5906 5905 5905 5904 5904 5903 5903 5902 5902 5901 5901 5900 5900 5899 5899 5898 5897 5896 5896 5895 5894 5893 5893 5892 5891 5890 5890 5889 5889 5888 5888 5886 5885 5884 5884 5883 5882 5880 5880 5880 5879 5878
5908 5907 5907 5906 5906 5905 5904 5903 5902 5902 5902 5901 5900 5900 5899 5898 5898 5897 5896 5895 5894 5893 5892 5892 5891 5890 5889 5889 5888 5887 5886 5886 5884 5884 5882 5882 5880 5879 5878 5877 5876 5876 5874
5909 5908 5908 5907 5906 5906 5905 5904 5903 5902 5902 5901 5900 5900 5899 5898 5897 5896 5895 5894 5893 5892 5891 5890 5890 5889 5888 5887 5886 5885 5884 5883 5883 5882 5881 5879 5878 5877 5876 5874 5874 5873 5871
5910 5909 5909 5908 5907 5906 5905 5904 5903 5903 5902 5901 5900 5899 5898 5897 5896 5895 5894 5893 5892 5891 5890 5889 5888 5887 5886 5885 5884 5883 5882 5881 5880 5879 5878 5877 5876 5874 5873 5873 5872 5870 5869
5911 5910 5909 5909 5908 5906 5905 5904 5903 5903 5902 5901 5899 5898 5897 5897 5895 5894 5893 5892 5891 5890 5889 5888 5887 5885 5884 5883 5882 5881 5879 5878 5877 5876 5875 5874 5873 5872 5871 5870 5869 5868 5867